Location: Saddleback Butte
(34.6776°N, 117.8050°W)
Time: 12:20:58
(UTC-07:00)

Iridium 35 - Visible Passes

Search period start: 27 May 2018 00:00
Search period end: 06 June 2018 00:00
Orbit: 761 x 765 km, 86.4° (Epoch: 27 May)

Date Brightness Start Highest point End Pass type
(mag) Time Alt. Az. Time Alt. Az. Time Alt. Az.
27 May 5.5 20:25:43 10° S 20:30:48 64° W 20:35:55 10° N visible
28 May 7.9 21:31:35 10° WSW 21:33:47 13° WNW 21:36:00 10° NW visible
29 May 7.2 20:51:20 10° SW 20:55:39 27° W 21:00:00 10° NNW visible
31 May 8.1 21:19:03 10° W 21:20:43 11° WNW 21:22:24 10° WNW visible
01 Jun 7.4 20:38:23 10° SW 20:42:34 25° W 20:46:46 10° NNW visible
03 Jun 8.4 21:06:53 10° W 21:07:40 10° WNW 21:08:27 10° WNW visible
04 Jun 7.7 20:25:29 10° SW 20:29:30 23° W 20:33:32 10° NNW visible
